owner,sensor,date,latitude,longitude,vertical_datum,sea_water_practical_salinity,qcFlag 
DISL,ioos:station:DISL:CATA:1,2011-01-01T00:00:00Z,30.3085,-88.1395,2.82,27.36,1111122 
DISL,ioos:station:DISL:CATA:1,2011-01-01T00:30:00Z,30.3085,-88.1395,2.814,27.63,1111122 
DISL,ioos:station:DISL:CATA:1,2011-01-01T01:00:00Z,30.3085,-88.1395,2.859,27.76,1111122 
DISL,ioos:station:DISL:CATA:1,2011-01-01T01:30:00Z,30.3085,-88.1395,2.86,27.61,1111122 
DISL,ioos:station:DISL:CATA:1,2011-01-01T02:00:00Z,30.3085,-88.1395,2.885,27.26,1111122 
DISL,ioos:station:DISL:CATA:1,2011-01-01T02:30:00Z,30.3085,-88.1395,2.878,27.0,1111122 
DISL,ioos:station:DISL:CATA:1,2011-01-01T03:00:00Z,30.3085,-88.1395,2.87,26.9,1111122 
DISL,ioos:station:DISL:CATA:1,2011-01-01T03:30:00Z,30.3085,-88.1395,2.862,26.87,1111122 
DISL,ioos:station:DISL:CATA:1,2011-01-01T04:00:00Z,30.3085,-88.1395,2.841,27.1,1111122 
DISL,ioos:station:DISL:CATA:1,2011-01-01T04:30:00Z,30.3085,-88.1395,2.804,26.96,1111122 
DISL,ioos:station:DISL:CATA:1,2011-01-01T05:00:00Z,30.3085,-88.1395,2.767,25.52,1111122 
DISL,ioos:station:DISL:CATA:1,2011-01-01T05:30:00Z,30.3085,-88.1395,2.726,23.46,1111122 
DISL,ioos:station:DISL:CATA:1,2011-01-01T06:00:00Z,30.3085,-88.1395,2.677,21.44,1111122 
DISL,ioos:station:DISL:CATA:1,2011-01-01T06:30:00Z,30.3085,-88.1395,2.626,21.05,1111122 
DISL,ioos:station:DISL:CATA:1,2011-01-01T07:00:00Z,30.3085,-88.1395,2.572,21.75,1111122 
DISL,ioos:station:DISL:CATA:1,2011-01-01T07:30:00Z,30.3085,-88.1395,2.523,22.41,1111122 
DISL,ioos:station:DISL:CATA:1,2011-01-01T08:00:00Z,30.3085,-88.1395,2.48,22.69,1111122 
DISL,ioos:station:DISL:CATA:1,2011-01-01T08:30:00Z,30.3085,-88.1395,2.446,22.94,1111122 
DISL,ioos:station:DISL:CATA:1,2011-01-01T09:00:00Z,30.3085,-88.1395,2.419,23.03,1111122 
DISL,ioos:station:DISL:CATA:1,2011-01-01T09:30:00Z,30.3085,-88.1395,2.386,23.11,1111122 
DISL,ioos:station:DISL:CATA:1,2011-01-01T10:00:00Z,30.3085,-88.1395,2.354,23.09,1111122 
DISL,ioos:station:DISL:CATA:1,2011-01-01T10:30:00Z,30.3085,-88.1395,2.337,22.85,1111122 
DISL,ioos:station:DISL:CATA:1,2011-01-01T11:00:00Z,30.3085,-88.1395,2.313,22.38,1111122 
DISL,ioos:station:DISL:CATA:1,2011-01-01T11:30:00Z,30.3085,-88.1395,2.296,22.33,1111122 
DISL,ioos:station:DISL:CATA:1,2011-01-01T12:00:00Z,30.3085,-88.1395,2.283,22.03,1111122 
DISL,ioos:station:DISL:CATA:1,2011-01-01T12:30:00Z,30.3085,-88.1395,2.271,20.19,1111122 
DISL,ioos:station:DISL:CATA:1,2011-01-01T13:00:00Z,30.3085,-88.1395,2.26,19.43,1111122 
DISL,ioos:station:DISL:CATA:1,2011-01-01T13:30:00Z,30.3085,-88.1395,2.26,19.52,1111122 
DISL,ioos:station:DISL:CATA:1,2011-01-01T14:00:00Z,30.3085,-88.1395,2.285,19.79,1111122 
DISL,ioos:station:DISL:CATA:1,2011-01-01T14:30:00Z,30.3085,-88.1395,2.311,19.87,1111122 
DISL,ioos:station:DISL:CATA:1,2011-01-01T15:00:00Z,30.3085,-88.1395,2.341,19.78,1111122 
DISL,ioos:station:DISL:CATA:1,2011-01-01T15:30:00Z,30.3085,-88.1395,2.386,20.47,1111122 
DISL,ioos:station:DISL:CATA:1,2011-01-01T16:00:00Z,30.3085,-88.1395,2.382,20.77,1111122 
DISL,ioos:station:DISL:CATA:1,2011-01-01T16:30:00Z,30.3085,-88.1395,2.427,21.13,1111122 
DISL,ioos:station:DISL:CATA:1,2011-01-01T17:00:00Z,30.3085,-88.1395,2.41,20.91,1111122 
DISL,ioos:station:DISL:CATA:1,2011-01-01T17:30:00Z,30.3085,-88.1395,2.426,20.3,1111122 
DISL,ioos:station:DISL:CATA:1,2011-01-01T18:00:00Z,30.3085,-88.1395,2.457,20.14,1111122 
DISL,ioos:station:DISL:CATA:1,2011-01-01T18:30:00Z,30.3085,-88.1395,2.449,20.29,1111122 
DISL,ioos:station:DISL:CATA:1,2011-01-01T19:00:00Z,30.3085,-88.1395,2.476,20.15,1111122 
DISL,ioos:station:DISL:CATA:1,2011-01-01T19:30:00Z,30.3085,-88.1395,2.515,20.17,1111122 
DISL,ioos:station:DISL:CATA:1,2011-01-01T20:00:00Z,30.3085,-88.1395,2.575,20.02,1111122 
DISL,ioos:station:DISL:CATA:1,2011-01-01T20:30:00Z,30.3085,-88.1395,2.621,19.91,1111122 
DISL,ioos:station:DISL:CATA:1,2011-01-01T21:00:00Z,30.3085,-88.1395,2.635,20.37,1111122 
DISL,ioos:station:DISL:CATA:1,2011-01-01T21:30:00Z,30.3085,-88.1395,2.66,21.08,1111122 
DISL,ioos:station:DISL:CATA:1,2011-01-01T22:00:00Z,30.3085,-88.1395,2.691,21.79,1111122 
DISL,ioos:station:DISL:CATA:1,2011-01-01T22:30:00Z,30.3085,-88.1395,2.708,22.1,1111122 
DISL,ioos:station:DISL:CATA:1,2011-01-01T23:00:00Z,30.3085,-88.1395,2.718,22.38,1111122 
DISL,ioos:station:DISL:CATA:1,2011-01-01T23:30:00Z,30.3085,-88.1395,2.718,23.03,1111122 
DISL,ioos:station:DISL:CATA:1,2011-01-02T00:00:00Z,30.3085,-88.1395,2.703,23.22,1111122 
DISL,ioos:station:DISL:CATA:1,2011-01-02T00:30:00Z,30.3085,-88.1395,2.692,23.09,1111122 
DISL,ioos:station:DISL:CATA:1,2011-01-02T01:00:00Z,30.3085,-88.1395,2.706,21.24,1111122 
DISL,ioos:station:DISL:CATA:1,2011-01-02T01:30:00Z,30.3085,-88.1395,2.71,20.89,1111122 
DISL,ioos:station:DISL:CATA:1,2011-01-02T02:00:00Z,30.3085,-88.1395,2.713,21.17,1111122 
DISL,ioos:station:DISL:CATA:1,2011-01-02T02:30:00Z,30.3085,-88.1395,2.714,21.48,1111122 
DISL,ioos:station:DISL:CATA:1,2011-01-02T03:00:00Z,30.3085,-88.1395,2.693,21.49,1111122 
DISL,ioos:station:DISL:CATA:1,2011-01-02T03:30:00Z,30.3085,-88.1395,2.682,21.46,1111122 
DISL,ioos:station:DISL:CATA:1,2011-01-02T04:00:00Z,30.3085,-88.1395,2.662,21.38,1111122 
DISL,ioos:station:DISL:CATA:1,2011-01-02T04:30:00Z,30.3085,-88.1395,2.631,21.29,1111122 
DISL,ioos:station:DISL:CATA:1,2011-01-02T05:00:00Z,30.3085,-88.1395,2.594,21.76,1111122 
DISL,ioos:station:DISL:CATA:1,2011-01-02T05:30:00Z,30.3085,-88.1395,2.552,22.17,1111122 
DISL,ioos:station:DISL:CATA:1,2011-01-02T06:00:00Z,30.3085,-88.1395,2.507,22.33,1111122 
DISL,ioos:station:DISL:CATA:1,2011-01-02T06:30:00Z,30.3085,-88.1395,2.466,22.41,1111122 
DISL,ioos:station:DISL:CATA:1,2011-01-02T07:00:00Z,30.3085,-88.1395,2.435,22.38,1111122 
DISL,ioos:station:DISL:CATA:1,2011-01-02T07:30:00Z,30.3085,-88.1395,2.399,21.9,1111122 
DISL,ioos:station:DISL:CATA:1,2011-01-02T08:00:00Z,30.3085,-88.1395,2.371,20.8,1111122 
DISL,ioos:station:DISL:CATA:1,2011-01-02T08:30:00Z,30.3085,-88.1395,2.327,20.52,1111122 
DISL,ioos:station:DISL:CATA:1,2011-01-02T09:00:00Z,30.3085,-88.1395,2.278,20.25,1111122 
DISL,ioos:station:DISL:CATA:1,2011-01-02T09:30:00Z,30.3085,-88.1395,2.232,20.04,1111122 
DISL,ioos:station:DISL:CATA:1,2011-01-02T10:00:00Z,30.3085,-88.1395,2.201,19.8,1111122 
DISL,ioos:station:DISL:CATA:1,2011-01-02T10:30:00Z,30.3085,-88.1395,2.169,19.77,1111122 
DISL,ioos:station:DISL:CATA:1,2011-01-02T11:00:00Z,30.3085,-88.1395,2.145,19.63,1111122 
DISL,ioos:station:DISL:CATA:1,2011-01-02T11:30:00Z,30.3085,-88.1395,2.129,19.55,1111122 
DISL,ioos:station:DISL:CATA:1,2011-01-02T12:00:00Z,30.3085,-88.1395,2.109,19.45,1111122 
DISL,ioos:station:DISL:CATA:1,2011-01-02T12:30:00Z,30.3085,-88.1395,2.076,19.4,1111122 
DISL,ioos:station:DISL:CATA:1,2011-01-02T13:00:00Z,30.3085,-88.1395,2.075,19.38,1111122 
DISL,ioos:station:DISL:CATA:1,2011-01-02T13:30:00Z,30.3085,-88.1395,2.073,19.35,1111122 
DISL,ioos:station:DISL:CATA:1,2011-01-02T14:00:00Z,30.3085,-88.1395,2.079,19.31,1111122 
DISL,ioos:station:DISL:CATA:1,2011-01-02T14:30:00Z,30.3085,-88.1395,2.095,19.3,1111122 
DISL,ioos:station:DISL:CATA:1,2011-01-02T15:00:00Z,30.3085,-88.1395,2.102,19.26,1111122 
DISL,ioos:station:DISL:CATA:1,2011-01-02T15:30:00Z,30.3085,-88.1395,2.106,19.19,1111122 
DISL,ioos:station:DISL:CATA:1,2011-01-02T16:00:00Z,30.3085,-88.1395,2.146,19.13,1111122 
DISL,ioos:station:DISL:CATA:1,2011-01-02T16:30:00Z,30.3085,-88.1395,2.178,19.22,1111122 
DISL,ioos:station:DISL:CATA:1,2011-01-02T17:00:00Z,30.3085,-88.1395,2.184,19.19,1111122 
DISL,ioos:station:DISL:CATA:1,2011-01-02T17:30:00Z,30.3085,-88.1395,2.2,19.08,1111122 
DISL,ioos:station:DISL:CATA:1,2011-01-02T18:00:00Z,30.3085,-88.1395,2.232,19.29,1111122 
DISL,ioos:station:DISL:CATA:1,2011-01-02T18:30:00Z,30.3085,-88.1395,2.227,19.11,1111122 
DISL,ioos:station:DISL:CATA:1,2011-01-02T19:00:00Z,30.3085,-88.1395,2.245,19.28,1111122 
DISL,ioos:station:DISL:CATA:1,2011-01-02T19:30:00Z,30.3085,-88.1395,2.284,19.33,1111122 
DISL,ioos:station:DISL:CATA:1,2011-01-02T20:00:00Z,30.3085,-88.1395,2.326,19.36,1111122 
DISL,ioos:station:DISL:CATA:1,2011-01-02T20:30:00Z,30.3085,-88.1395,2.354,19.68,1111122 
DISL,ioos:station:DISL:CATA:1,2011-01-02T21:00:00Z,30.3085,-88.1395,2.38,20.0,1111122 
DISL,ioos:station:DISL:CATA:1,2011-01-02T21:30:00Z,30.3085,-88.1395,2.414,19.98,1111122 
DISL,ioos:station:DISL:CATA:1,2011-01-02T22:00:00Z,30.3085,-88.1395,2.447,20.12,1111122 
DISL,ioos:station:DISL:CATA:1,2011-01-02T22:30:00Z,30.3085,-88.1395,2.479,20.23,1111122 
DISL,ioos:station:DISL:CATA:1,2011-01-02T23:00:00Z,30.3085,-88.1395,2.515,20.24,1111122 
DISL,ioos:station:DISL:CATA:1,2011-01-02T23:30:00Z,30.3085,-88.1395,2.547,20.35,1111122 
DISL,ioos:station:DISL:CATA:1,2011-01-03T00:00:00Z,30.3085,-88.1395,2.585,20.74,1111122 
DISL,ioos:station:DISL:CATA:1,2011-01-03T00:30:00Z,30.3085,-88.1395,2.606,20.95,1111122 
DISL,ioos:station:DISL:CATA:1,2011-01-03T01:00:00Z,30.3085,-88.1395,2.623,20.77,1111122 
DISL,ioos:station:DISL:CATA:1,2011-01-03T01:30:00Z,30.3085,-88.1395,2.625,20.97,1111122 
DISL,ioos:station:DISL:CATA:1,2011-01-03T02:00:00Z,30.3085,-88.1395,2.642,21.37,1111122 
DISL,ioos:station:DISL:CATA:1,2011-01-03T02:30:00Z,30.3085,-88.1395,2.656,22.14,1111122 
DISL,ioos:station:DISL:CATA:1,2011-01-03T03:00:00Z,30.3085,-88.1395,2.663,22.74,1111122 
DISL,ioos:station:DISL:CATA:1,2011-01-03T03:30:00Z,30.3085,-88.1395,2.666,23.04,1111122 
DISL,ioos:station:DISL:CATA:1,2011-01-03T04:00:00Z,30.3085,-88.1395,2.634,23.02,1111122 
DISL,ioos:station:DISL:CATA:1,2011-01-03T04:30:00Z,30.3085,-88.1395,2.609,23.67,1111122 
DISL,ioos:station:DISL:CATA:1,2011-01-03T05:00:00Z,30.3085,-88.1395,2.581,23.91,1111122 
DISL,ioos:station:DISL:CATA:1,2011-01-03T05:30:00Z,30.3085,-88.1395,2.551,23.32,1111122 
DISL,ioos:station:DISL:CATA:1,2011-01-03T06:00:00Z,30.3085,-88.1395,2.515,21.09,1111122 
DISL,ioos:station:DISL:CATA:1,2011-01-03T06:30:00Z,30.3085,-88.1395,2.471,19.86,1111122 
DISL,ioos:station:DISL:CATA:1,2011-01-03T07:00:00Z,30.3085,-88.1395,2.435,19.52,1111122 
DISL,ioos:station:DISL:CATA:1,2011-01-03T07:30:00Z,30.3085,-88.1395,2.4,19.5,1111122 
DISL,ioos:station:DISL:CATA:1,2011-01-03T08:00:00Z,30.3085,-88.1395,2.351,19.26,1111122 
DISL,ioos:station:DISL:CATA:1,2011-01-03T08:30:00Z,30.3085,-88.1395,2.31,19.07,1111122 
DISL,ioos:station:DISL:CATA:1,2011-01-03T09:00:00Z,30.3085,-88.1395,2.26,19.19,1111122 
DISL,ioos:station:DISL:CATA:1,2011-01-03T09:30:00Z,30.3085,-88.1395,2.218,19.28,1111122 
DISL,ioos:station:DISL:CATA:1,2011-01-03T10:00:00Z,30.3085,-88.1395,2.188,19.12,1111122 
DISL,ioos:station:DISL:CATA:1,2011-01-03T10:30:00Z,30.3085,-88.1395,2.146,18.88,1111122 
DISL,ioos:station:DISL:CATA:1,2011-01-03T11:00:00Z,30.3085,-88.1395,2.118,18.84,1111122 
DISL,ioos:station:DISL:CATA:1,2011-01-03T11:30:00Z,30.3085,-88.1395,2.087,18.74,1111122 
DISL,ioos:station:DISL:CATA:1,2011-01-03T12:00:00Z,30.3085,-88.1395,2.062,18.65,1111122 
DISL,ioos:station:DISL:CATA:1,2011-01-03T12:30:00Z,30.3085,-88.1395,2.046,17.89,1111122 
DISL,ioos:station:DISL:CATA:1,2011-01-03T13:00:00Z,30.3085,-88.1395,2.027,17.5,1111122 
DISL,ioos:station:DISL:CATA:1,2011-01-03T13:30:00Z,30.3085,-88.1395,2.021,17.1,1111122 
DISL,ioos:station:DISL:CATA:1,2011-01-03T14:00:00Z,30.3085,-88.1395,2.015,16.89,1111122 
DISL,ioos:station:DISL:CATA:1,2011-01-03T14:30:00Z,30.3085,-88.1395,2.005,16.79,1111122 
DISL,ioos:station:DISL:CATA:1,2011-01-03T15:00:00Z,30.3085,-88.1395,2.006,16.58,1111122 
DISL,ioos:station:DISL:CATA:1,2011-01-03T15:30:00Z,30.3085,-88.1395,2.03,16.37,1111122 
DISL,ioos:station:DISL:CATA:1,2011-01-03T16:00:00Z,30.3085,-88.1395,2.061,16.21,1111122 
DISL,ioos:station:DISL:CATA:1,2011-01-03T16:30:00Z,30.3085,-88.1395,2.085,16.11,1111122 
DISL,ioos:station:DISL:CATA:1,2011-01-03T17:00:00Z,30.3085,-88.1395,2.106,16.36,1111122 
DISL,ioos:station:DISL:CATA:1,2011-01-03T17:30:00Z,30.3085,-88.1395,2.14,16.52,1111122 
DISL,ioos:station:DISL:CATA:1,2011-01-03T18:00:00Z,30.3085,-88.1395,2.161,16.76,1111122 
DISL,ioos:station:DISL:CATA:1,2011-01-03T18:30:00Z,30.3085,-88.1395,2.179,17.05,1111122 
DISL,ioos:station:DISL:CATA:1,2011-01-03T19:00:00Z,30.3085,-88.1395,2.201,16.44,1111122 
DISL,ioos:station:DISL:CATA:1,2011-01-03T19:30:00Z,30.3085,-88.1395,2.227,16.55,1111122 
DISL,ioos:station:DISL:CATA:1,2011-01-03T20:00:00Z,30.3085,-88.1395,2.255,16.84,1111122 
DISL,ioos:station:DISL:CATA:1,2011-01-03T20:30:00Z,30.3085,-88.1395,2.291,17.17,1111122 
DISL,ioos:station:DISL:CATA:1,2011-01-03T21:00:00Z,30.3085,-88.1395,2.327,18.05,1111122 
DISL,ioos:station:DISL:CATA:1,2011-01-03T21:30:00Z,30.3085,-88.1395,2.367,18.44,1111122 
DISL,ioos:station:DISL:CATA:1,2011-01-03T22:00:00Z,30.3085,-88.1395,2.41,18.88,1111122 
DISL,ioos:station:DISL:CATA:1,2011-01-03T22:30:00Z,30.3085,-88.1395,2.434,19.01,1111122 
DISL,ioos:station:DISL:CATA:1,2011-01-03T23:00:00Z,30.3085,-88.1395,2.48,19.14,1111122 
DISL,ioos:station:DISL:CATA:1,2011-01-03T23:30:00Z,30.3085,-88.1395,2.513,19.45,1111122 
DISL,ioos:station:DISL:CATA:1,2011-01-04T00:00:00Z,30.3085,-88.1395,2.55,19.92,1111122 
DISL,ioos:station:DISL:CATA:1,2011-01-04T00:30:00Z,30.3085,-88.1395,2.588,20.22,1111122 
DISL,ioos:station:DISL:CATA:1,2011-01-04T01:00:00Z,30.3085,-88.1395,2.627,20.37,1111122 
DISL,ioos:station:DISL:CATA:1,2011-01-04T01:30:00Z,30.3085,-88.1395,2.657,21.42,1111122 
DISL,ioos:station:DISL:CATA:1,2011-01-04T02:00:00Z,30.3085,-88.1395,2.672,22.12,1111122 
DISL,ioos:station:DISL:CATA:1,2011-01-04T02:30:00Z,30.3085,-88.1395,2.696,22.78,1111122 
DISL,ioos:station:DISL:CATA:1,2011-01-04T03:00:00Z,30.3085,-88.1395,2.715,23.27,1111122 
DISL,ioos:station:DISL:CATA:1,2011-01-04T03:30:00Z,30.3085,-88.1395,2.716,23.7,1111122 
DISL,ioos:station:DISL:CATA:1,2011-01-04T04:00:00Z,30.3085,-88.1395,2.705,23.82,1111122 
DISL,ioos:station:DISL:CATA:1,2011-01-04T04:30:00Z,30.3085,-88.1395,2.694,23.81,1111122 
DISL,ioos:station:DISL:CATA:1,2011-01-04T05:00:00Z,30.3085,-88.1395,2.675,23.76,1111122 
DISL,ioos:station:DISL:CATA:1,2011-01-04T05:30:00Z,30.3085,-88.1395,2.645,23.88,1111122 
DISL,ioos:station:DISL:CATA:1,2011-01-04T06:00:00Z,30.3085,-88.1395,2.613,24.06,1111122 
DISL,ioos:station:DISL:CATA:1,2011-01-04T06:30:00Z,30.3085,-88.1395,2.576,22.44,1111122 
DISL,ioos:station:DISL:CATA:1,2011-01-04T07:00:00Z,30.3085,-88.1395,2.553,19.33,1111122 
DISL,ioos:station:DISL:CATA:1,2011-01-04T07:30:00Z,30.3085,-88.1395,2.515,19.17,1111122 
DISL,ioos:station:DISL:CATA:1,2011-01-04T08:00:00Z,30.3085,-88.1395,2.474,18.9,1111122 
DISL,ioos:station:DISL:CATA:1,2011-01-04T08:30:00Z,30.3085,-88.1395,2.435,18.56,1111122 
DISL,ioos:station:DISL:CATA:1,2011-01-04T09:00:00Z,30.3085,-88.1395,2.387,19.12,1111122 
DISL,ioos:station:DISL:CATA:1,2011-01-04T09:30:00Z,30.3085,-88.1395,2.342,19.69,1111122 
DISL,ioos:station:DISL:CATA:1,2011-01-04T10:00:00Z,30.3085,-88.1395,2.295,20.11,1111122 
DISL,ioos:station:DISL:CATA:1,2011-01-04T10:30:00Z,30.3085,-88.1395,2.247,20.53,1111122 
DISL,ioos:station:DISL:CATA:1,2011-01-04T11:00:00Z,30.3085,-88.1395,2.211,20.69,1111122 
DISL,ioos:station:DISL:CATA:1,2011-01-04T11:30:00Z,30.3085,-88.1395,2.171,20.8,1111122 
DISL,ioos:station:DISL:CATA:1,2011-01-04T12:00:00Z,30.3085,-88.1395,2.15,20.53,1111122 
DISL,ioos:station:DISL:CATA:1,2011-01-04T12:30:00Z,30.3085,-88.1395,2.129,19.45,1111122 
DISL,ioos:station:DISL:CATA:1,2011-01-04T13:00:00Z,30.3085,-88.1395,2.105,19.53,1111122 
DISL,ioos:station:DISL:CATA:1,2011-01-04T13:30:00Z,30.3085,-88.1395,2.107,19.76,1111122 
DISL,ioos:station:DISL:CATA:1,2011-01-04T14:00:00Z,30.3085,-88.1395,2.113,19.89,1111122 
DISL,ioos:station:DISL:CATA:1,2011-01-04T14:30:00Z,30.3085,-88.1395,2.117,19.58,1111122 
DISL,ioos:station:DISL:CATA:1,2011-01-04T15:00:00Z,30.3085,-88.1395,2.131,19.29,1111122 
DISL,ioos:station:DISL:CATA:1,2011-01-04T15:30:00Z,30.3085,-88.1395,2.131,19.24,1111122 
DISL,ioos:station:DISL:CATA:1,2011-01-04T16:00:00Z,30.3085,-88.1395,2.134,19.15,1111122 
DISL,ioos:station:DISL:CATA:1,2011-01-04T16:30:00Z,30.3085,-88.1395,2.136,19.11,1111122 
DISL,ioos:station:DISL:CATA:1,2011-01-04T17:00:00Z,30.3085,-88.1395,2.155,18.98,1111122 
DISL,ioos:station:DISL:CATA:1,2011-01-04T17:30:00Z,30.3085,-88.1395,2.166,18.89,1111122 
DISL,ioos:station:DISL:CATA:1,2011-01-04T18:00:00Z,30.3085,-88.1395,2.178,18.9,1111122 
DISL,ioos:station:DISL:CATA:1,2011-01-04T18:30:00Z,30.3085,-88.1395,2.19,18.86,1111122 
DISL,ioos:station:DISL:CATA:1,2011-01-04T19:00:00Z,30.3085,-88.1395,2.197,19.03,1111122 
DISL,ioos:station:DISL:CATA:1,2011-01-04T19:30:00Z,30.3085,-88.1395,2.215,19.07,1111122 
DISL,ioos:station:DISL:CATA:1,2011-01-04T20:00:00Z,30.3085,-88.1395,2.238,19.29,1111122 
DISL,ioos:station:DISL:CATA:1,2011-01-04T20:30:00Z,30.3085,-88.1395,2.249,19.26,1111122 
DISL,ioos:station:DISL:CATA:1,2011-01-04T21:00:00Z,30.3085,-88.1395,2.273,19.34,1111122 
DISL,ioos:station:DISL:CATA:1,2011-01-04T21:30:00Z,30.3085,-88.1395,2.303,19.49,1111122 
DISL,ioos:station:DISL:CATA:1,2011-01-04T22:00:00Z,30.3085,-88.1395,2.337,19.93,1111122 
DISL,ioos:station:DISL:CATA:1,2011-01-04T22:30:00Z,30.3085,-88.1395,2.369,20.01,1111122 
DISL,ioos:station:DISL:CATA:1,2011-01-04T23:00:00Z,30.3085,-88.1395,2.399,20.05,1111122 
DISL,ioos:station:DISL:CATA:1,2011-01-04T23:30:00Z,30.3085,-88.1395,2.431,19.95,1111122 
DISL,ioos:station:DISL:CATA:1,2011-01-05T00:00:00Z,30.3085,-88.1395,2.471,19.92,1111122 
DISL,ioos:station:DISL:CATA:1,2011-01-05T00:30:00Z,30.3085,-88.1395,2.507,20.13,1111122 
DISL,ioos:station:DISL:CATA:1,2011-01-05T01:00:00Z,30.3085,-88.1395,2.539,20.35,1111122 
DISL,ioos:station:DISL:CATA:1,2011-01-05T01:30:00Z,30.3085,-88.1395,2.575,20.46,1111122 
DISL,ioos:station:DISL:CATA:1,2011-01-05T02:00:00Z,30.3085,-88.1395,2.604,20.96,1111122 
DISL,ioos:station:DISL:CATA:1,2011-01-05T02:30:00Z,30.3085,-88.1395,2.625,21.17,1111122 
DISL,ioos:station:DISL:CATA:1,2011-01-05T03:00:00Z,30.3085,-88.1395,2.644,21.25,1111122 
DISL,ioos:station:DISL:CATA:1,2011-01-05T03:30:00Z,30.3085,-88.1395,2.658,21.24,1111122 
DISL,ioos:station:DISL:CATA:1,2011-01-05T04:00:00Z,30.3085,-88.1395,2.647,21.43,1111122 
DISL,ioos:station:DISL:CATA:1,2011-01-05T04:30:00Z,30.3085,-88.1395,2.632,21.43,1111122 
DISL,ioos:station:DISL:CATA:1,2011-01-05T05:00:00Z,30.3085,-88.1395,2.613,21.43,1111122 
DISL,ioos:station:DISL:CATA:1,2011-01-05T05:30:00Z,30.3085,-88.1395,2.586,21.95,1111122 
DISL,ioos:station:DISL:CATA:1,2011-01-05T06:00:00Z,30.3085,-88.1395,2.576,22.26,1111122 
DISL,ioos:station:DISL:CATA:1,2011-01-05T06:30:00Z,30.3085,-88.1395,2.536,21.56,1111122 
DISL,ioos:station:DISL:CATA:1,2011-01-05T07:00:00Z,30.3085,-88.1395,2.507,19.18,1111122 
DISL,ioos:station:DISL:CATA:1,2011-01-05T07:30:00Z,30.3085,-88.1395,2.484,18.92,1111122 
DISL,ioos:station:DISL:CATA:1,2011-01-05T08:00:00Z,30.3085,-88.1395,2.445,18.88,1111122 
DISL,ioos:station:DISL:CATA:1,2011-01-05T08:30:00Z,30.3085,-88.1395,2.4,18.09,1111122 
DISL,ioos:station:DISL:CATA:1,2011-01-05T09:00:00Z,30.3085,-88.1395,2.353,18.07,1111122 
DISL,ioos:station:DISL:CATA:1,2011-01-05T09:30:00Z,30.3085,-88.1395,2.31,17.47,1111122 
DISL,ioos:station:DISL:CATA:1,2011-01-05T10:00:00Z,30.3085,-88.1395,2.268,17.41,1111122 
DISL,ioos:station:DISL:CATA:1,2011-01-05T10:30:00Z,30.3085,-88.1395,2.224,17.52,1111122 
DISL,ioos:station:DISL:CATA:1,2011-01-05T11:00:00Z,30.3085,-88.1395,2.189,16.92,1111122 
DISL,ioos:station:DISL:CATA:1,2011-01-05T11:30:00Z,30.3085,-88.1395,2.154,16.8,1111122 
DISL,ioos:station:DISL:CATA:1,2011-01-05T12:00:00Z,30.3085,-88.1395,2.124,16.76,1111122 
DISL,ioos:station:DISL:CATA:1,2011-01-05T12:30:00Z,30.3085,-88.1395,2.103,16.56,1111122 
DISL,ioos:station:DISL:CATA:1,2011-01-05T13:00:00Z,30.3085,-88.1395,2.095,16.32,1111122 
DISL,ioos:station:DISL:CATA:1,2011-01-05T13:30:00Z,30.3085,-88.1395,2.102,16.17,1111122 
DISL,ioos:station:DISL:CATA:1,2011-01-05T14:00:00Z,30.3085,-88.1395,2.118,16.05,1111122 
DISL,ioos:station:DISL:CATA:1,2011-01-05T14:30:00Z,30.3085,-88.1395,2.186,15.87,1111122 
DISL,ioos:station:DISL:CATA:1,2011-01-05T15:00:00Z,30.3085,-88.1395,2.19,15.87,1111122 
DISL,ioos:station:DISL:CATA:1,2011-01-05T15:30:00Z,30.3085,-88.1395,2.11,15.83,1111122 
DISL,ioos:station:DISL:CATA:1,2011-01-05T16:00:00Z,30.3085,-88.1395,2.114,15.85,1111122 
DISL,ioos:station:DISL:CATA:1,2011-01-05T16:30:00Z,30.3085,-88.1395,2.139,15.85,1111122 
DISL,ioos:station:DISL:CATA:1,2011-01-05T17:00:00Z,30.3085,-88.1395,2.13,15.99,1111122 
DISL,ioos:station:DISL:CATA:1,2011-01-05T17:30:00Z,30.3085,-88.1395,2.119,15.91,1111122 
DISL,ioos:station:DISL:CATA:1,2011-01-05T18:00:00Z,30.3085,-88.1395,2.094,15.72,1111122 
DISL,ioos:station:DISL:CATA:1,2011-01-05T18:30:00Z,30.3085,-88.1395,2.102,15.67,1111122 
DISL,ioos:station:DISL:CATA:1,2011-01-05T19:00:00Z,30.3085,-88.1395,2.125,15.71,1111122 
DISL,ioos:station:DISL:CATA:1,2011-01-05T19:30:00Z,30.3085,-88.1395,2.172,15.83,1111122 
DISL,ioos:station:DISL:CATA:1,2011-01-05T20:00:00Z,30.3085,-88.1395,2.203,16.01,1111122 
DISL,ioos:station:DISL:CATA:1,2011-01-05T20:30:00Z,30.3085,-88.1395,2.236,16.19,1111122 
DISL,ioos:station:DISL:CATA:1,2011-01-05T21:00:00Z,30.3085,-88.1395,2.26,16.37,1111122 
DISL,ioos:station:DISL:CATA:1,2011-01-05T21:30:00Z,30.3085,-88.1395,2.266,16.54,1111122 
DISL,ioos:station:DISL:CATA:1,2011-01-05T22:00:00Z,30.3085,-88.1395,2.297,16.59,1111122 
DISL,ioos:station:DISL:CATA:1,2011-01-05T22:30:00Z,30.3085,-88.1395,2.321,16.87,1111122 
DISL,ioos:station:DISL:CATA:1,2011-01-05T23:00:00Z,30.3085,-88.1395,2.344,16.93,1111122 
DISL,ioos:station:DISL:CATA:1,2011-01-05T23:30:00Z,30.3085,-88.1395,2.367,17.09,1111122 
DISL,ioos:station:DISL:CATA:1,2011-01-06T00:00:00Z,30.3085,-88.1395,2.406,17.52,1111122 
DISL,ioos:station:DISL:CATA:1,2011-01-06T00:30:00Z,30.3085,-88.1395,2.442,17.87,1111122 
DISL,ioos:station:DISL:CATA:1,2011-01-06T01:00:00Z,30.3085,-88.1395,2.484,18.16,1111122 
DISL,ioos:station:DISL:CATA:1,2011-01-06T01:30:00Z,30.3085,-88.1395,2.521,18.91,1111122 
DISL,ioos:station:DISL:CATA:1,2011-01-06T02:00:00Z,30.3085,-88.1395,2.555,19.6,1111122 
DISL,ioos:station:DISL:CATA:1,2011-01-06T02:30:00Z,30.3085,-88.1395,2.593,20.23,1111122 
DISL,ioos:station:DISL:CATA:1,2011-01-06T03:00:00Z,30.3085,-88.1395,2.607,20.08,1111122 
DISL,ioos:station:DISL:CATA:1,2011-01-06T03:30:00Z,30.3085,-88.1395,2.613,19.91,1111122 
DISL,ioos:station:DISL:CATA:1,2011-01-06T04:00:00Z,30.3085,-88.1395,2.626,19.88,1111122 
DISL,ioos:station:DISL:CATA:1,2011-01-06T04:30:00Z,30.3085,-88.1395,2.639,20.06,1111122 
DISL,ioos:station:DISL:CATA:1,2011-01-06T05:00:00Z,30.3085,-88.1395,2.615,20.3,1111122 
DISL,ioos:station:DISL:CATA:1,2011-01-06T05:30:00Z,30.3085,-88.1395,2.586,20.52,1111122 
DISL,ioos:station:DISL:CATA:1,2011-01-06T06:00:00Z,30.3085,-88.1395,2.555,20.9,1111122 
DISL,ioos:station:DISL:CATA:1,2011-01-06T06:30:00Z,30.3085,-88.1395,2.549,21.53,1111122 
DISL,ioos:station:DISL:CATA:1,2011-01-06T07:00:00Z,30.3085,-88.1395,2.524,20.09,1111122 
DISL,ioos:station:DISL:CATA:1,2011-01-06T07:30:00Z,30.3085,-88.1395,2.531,17.44,1111122 
DISL,ioos:station:DISL:CATA:1,2011-01-06T08:00:00Z,30.3085,-88.1395,2.497,17.85,1111122 
DISL,ioos:station:DISL:CATA:1,2011-01-06T08:30:00Z,30.3085,-88.1395,2.451,18.3,1111122 
DISL,ioos:station:DISL:CATA:1,2011-01-06T09:00:00Z,30.3085,-88.1395,2.409,18.56,1111122 
DISL,ioos:station:DISL:CATA:1,2011-01-06T09:30:00Z,30.3085,-88.1395,2.368,17.14,1111122 
DISL,ioos:station:DISL:CATA:1,2011-01-06T10:00:00Z,30.3085,-88.1395,2.33,16.84,1111122 
DISL,ioos:station:DISL:CATA:1,2011-01-06T10:30:00Z,30.3085,-88.1395,2.27,16.7,1111122 
DISL,ioos:station:DISL:CATA:1,2011-01-06T11:00:00Z,30.3085,-88.1395,2.216,16.65,1111122 
DISL,ioos:station:DISL:CATA:1,2011-01-06T11:30:00Z,30.3085,-88.1395,2.183,16.98,1111122 
DISL,ioos:station:DISL:CATA:1,2011-01-06T12:00:00Z,30.3085,-88.1395,2.16,16.93,1111122 
DISL,ioos:station:DISL:CATA:1,2011-01-06T12:30:00Z,30.3085,-88.1395,2.135,16.66,1111122 
DISL,ioos:station:DISL:CATA:1,2011-01-06T13:00:00Z,30.3085,-88.1395,2.136,17.1,1111122 
DISL,ioos:station:DISL:CATA:1,2011-01-06T13:30:00Z,30.3085,-88.1395,2.134,17.0,1111122 
DISL,ioos:station:DISL:CATA:1,2011-01-06T14:00:00Z,30.3085,-88.1395,2.136,16.45,1111122 